Regional Weather Roundup
Issued by NWS Northern Indiana

Home | Current Version | Previous Version | Graphics & Text | Print | Product List | Glossary On
Versions: 1 2 3 4 5 6 7 8 9 10 11 12 13 14 15 16 17 18 19 20 21 22 23 24 25 26 27 28 29 30 31 32 33 34 35 36 37 38 39 40 41 42 43 44 45 46 47 48 49 50
000
ASUS43 KIWX 261400
RWRIWX

KIWX WEATHER ROUNDUP
NATIONAL WEATHER SERVICE NORTHERN INDIANA
1000 AM EDT SUN MAR 26 2017

NOTE: "FAIR" INDICATES FEW OR NO CLOUDS BELOW 12,000 FEET WITH NO
SIGNIFICANT WEATHER AND/OR OBSTRUCTIONS TO VISIBILITY.

* THESE STATIONS ARE NOT UNDER NWS QUALITY CONTROL. THEY ALSO MAY NOT
  REPORT WEATHER SUCH AS PRECIPITATION OR FOG.

INZ001>027-261500-
NORTHERN INDIANA

CITY           SKY/WX    TMP DP  RH WIND       PRES   REMARKS
GARY*          DRIZZLE   54  54 100 SE14      29.87S
KNOX*          CLOUDY    52  46  82 SE7       29.89F
SOUTH BEND     LGT RAIN  47  32  56 E8        29.91F
ELKHART*       DRIZZLE   46  46 100 E7        29.91F
GOSHEN         LGT RAIN  47  44  90 SE12      29.91F FOG
MONTICELLO*    CLOUDY    56  54  95 SE6       29.89S
ANGOLA*        CLOUDY    41  41 100 SE9       29.96S
FORT WAYNE     LGT RAIN  44  42  93 E8        29.96F FOG
PERU/GRISSOM   LGT RAIN  56  56 100 S9        29.89F

$$
INZ028>050-261500-
CENTRAL INDIANA

CITY           SKY/WX    TMP DP  RH WIND       PRES   REMARKS
LAFAYETTE      CLOUDY    57  56  96 S8        29.89S
KOKOMO*        LGT RAIN  56  55  97 S10       29.92F
MUNCIE*        CLOUDY    59  55  87 S10       29.94S
INDIANAPOLIS   CLOUDY    58  55  90 S15       29.92S

$$
MIZ043>046-050>051-056>058-064>065-071>073-077>080-261500-
SOUTHWEST LOWER MICHIGAN

CITY           SKY/WX    TMP DP  RH WIND       PRES   REMARKS
BATTLE CREEK   LGT RAIN  43  42  97 E6        29.95F FOG
BENTON HARBOR  LGT RAIN  49  46  90 E9        29.90F FOG
COLDWATER*     LGT RAIN  44  43  99 E9        29.94F
HILLSDALE*     CLOUDY    41  37  87 E7        29.96S FOG
HOLLAND        CLOUDY    44  42  93 E12       29.93F FOG
GRAND RAPIDS   CLOUDY    39  37  92 E10       29.96F FOG
KALAMAZOO      LGT RAIN  45  42  89 E7        29.95F FOG
STURGIS*       DRIZZLE   44  44  98 E8        29.92F
THREE RIVERS*  LGT RAIN  45  44  97 E7        29.93F

$$
OHZ001>008-015>018-024>025-261500-
NORTHWEST OHIO

CITY           SKY/WX    TMP DP  RH WIND       PRES   REMARKS
DEFIANCE       LGT RAIN  40  38  93 E8        29.99S FOG
FINDLAY        LGT RAIN  43  39  86 E7        30.00R FOG
TOLEDO EXPRESS LGT RAIN  39  38  96 E7        30.00F
TOLEDO METCALF CLOUDY    40  38  93 SE8       30.04R FOG
LIMA           LGT RAIN  47  46  97 SE7       29.98F FOG

$$
AND FOR LAKE MICHIGAN COASTAL AND OPEN LAKE BUOY OBSERVATIONS

STATION/POSITION TEMP    WIND        PRES    VSBY  WAVE
                 AIR SEA DIR/SP/G                  HT/PER
                 (F)     (DEG/KT/KT) (MB)    (MI)  (FT/S)
CALUMET HARBOR    51     120/  5/  8 1010.8S
MICHIGAN CITY     51     130/  9/ 10   N/A
BURNS HARBOR      53     140/  8/ 15 1012.2S

$$
&&



USA.gov is the U.S. government's official web portal to all federal, state and local government web resources and services.